TimeGMT,TemperatureF,Dew PointF,Humidity,Sea Level PressureIn,VisibilityMPH,Wind Direction,Wind SpeedMPH,Gust SpeedMPH,PrecipitationIn,Events,Conditions,WindDirDegrees,DateUTC
2:50 AM,54,51,84,29.83,,SSW,16.1,,,,,200,2012-11-20 02:50:00
5:50 AM,54,51,86,29.81,,SSW,18.4,,,,,200,2012-11-20 05:50:00
7:50 AM,53.6,51.8,94,29.80,4.3,South,19.6,31.1,N/A,Rain,Rain,190,2012-11-20 07:50:00
8:20 AM,53.6,51.8,94,29.80,4.3,South,20.7,-,N/A,Rain,Rain,190,2012-11-20 08:20:00
8:50 AM,54,52,90,29.82,,South,20.7,,,,,190,2012-11-20 08:50:00
8:50 AM,55.4,51.8,88,29.80,3.7,South,18.4,29.9,N/A,Rain,Light Rain,190,2012-11-20 08:50:00
9:20 AM,55.4,51.8,88,29.80,3.7,South,19.6,31.1,N/A,Rain,Rain,190,2012-11-20 09:20:00
9:50 AM,55.4,51.8,88,29.83,6.2,South,18.4,29.9,N/A,Rain,Light Rain,190,2012-11-20 09:50:00
10:20 AM,55.4,51.8,88,29.83,6.2,SSW,20.7,-,N/A,Rain,Rain,200,2012-11-20 10:20:00
10:50 AM,55.4,51.8,88,29.83,5.0,South,21.9,-,N/A,Rain,Light Rain,190,2012-11-20 10:50:00
11:20 AM,55.4,51.8,88,29.83,6.2,South,19.6,-,N/A,Rain,Light Rain,190,2012-11-20 11:20:00
11:50 AM,54,51,87,29.83,,South,20.7,,,,,190,2012-11-20 11:50:00
11:50 AM,55.4,51.8,88,29.80,6.2,South,20.7,-,N/A,Rain,Light Rain,190,2012-11-20 11:50:00
12:20 PM,53.6,51.8,94,29.80,5.0,South,19.6,-,N/A,Rain,Light Rain,190,2012-11-20 12:20:00
12:50 PM,55.4,51.8,88,29.83,5.0,South,16.1,27.6,N/A,Rain,Light Rain,190,2012-11-20 12:50:00
1:20 PM,55.4,51.8,88,29.80,5.6,South,13.8,25.3,N/A,Rain,Light Rain,190,2012-11-20 13:20:00
1:50 PM,55.4,51.8,88,29.80,6.2,South,18.4,-,N/A,,Scattered Clouds,180,2012-11-20 13:50:00
2:20 PM,55.4,50.0,82,29.80,6.2,South,17.3,28.8,N/A,,Scattered Clouds,180,2012-11-20 14:20:00
2:50 PM,55,51,81,29.81,,South,18.4,,,,,190,2012-11-20 14:50:00
2:50 PM,53.6,50.0,88,29.80,6.2,South,18.4,-,N/A,Rain,Light Rain,180,2012-11-20 14:50:00
3:20 PM,55.4,50.0,82,29.80,6.2,South,19.6,-,N/A,Rain,Light Rain,190,2012-11-20 15:20:00
3:50 PM,55.4,50.0,82,29.80,5.0,South,21.9,-,N/A,Rain,Light Rain,190,2012-11-20 15:50:00
4:20 PM,55.4,50.0,82,29.80,5.0,South,21.9,-,N/A,Rain,Light Rain,190,2012-11-20 16:20:00
4:50 PM,55.4,51.8,88,29.80,6.2,South,21.9,-,N/A,,Scattered Clouds,190,2012-11-20 16:50:00
5:20 PM,55.4,50.0,82,29.80,6.2,South,19.6,-,N/A,Rain,Light Rain,190,2012-11-20 17:20:00
5:50 PM,55,51,83,29.82,,South,18.4,,,,,190,2012-11-20 17:50:00
5:50 PM,55.4,51.8,88,29.80,6.2,South,16.1,27.6,N/A,Rain,Light Rain,190,2012-11-20 17:50:00
6:20 PM,55.4,50.0,82,29.80,6.2,South,21.9,-,N/A,Rain,Light Rain,190,2012-11-20 18:20:00
8:50 PM,56,50,75,29.82,,South,17.3,,,,,190,2012-11-20 20:50:00
11:50 PM,54,50,82,29.79,,South,10.4,,,,,170,2012-11-20 23:50:00